owner,sensor,date,latitude,longitude,vertical_datum,wind_speed,wind_to_direction,wind_speed_of_gust,qcFlag 
NDBC,ioos:station:NOAA.NDBC:PTAT2:1,2019-07-01T00:00:00Z,27.8260,-97.0510,14.9,8.2,110.0,9.3,'11111222,11111222,11111222' 
NDBC,ioos:station:NOAA.NDBC:PTAT2:1,2019-07-01T02:00:00Z,27.8260,-97.0510,14.9,8.2,120.0,8.8,'11111222,11111222,11111222' 
NDBC,ioos:station:NOAA.NDBC:PTAT2:1,2019-07-01T03:00:00Z,27.8260,-97.0510,14.9,9.3,130.0,10.8,'11111222,11111222,11111222' 
NDBC,ioos:station:NOAA.NDBC:PTAT2:1,2019-07-01T04:00:00Z,27.8260,-97.0510,14.9,10.3,130.0,11.3,'11111222,11111222,11111222' 
NDBC,ioos:station:NOAA.NDBC:PTAT2:1,2019-07-01T05:00:00Z,27.8260,-97.0510,14.9,9.3,140.0,10.3,'11111222,11111222,11111222' 
NDBC,ioos:station:NOAA.NDBC:PTAT2:1,2019-07-01T06:00:00Z,27.8260,-97.0510,14.9,10.8,150.0,11.8,'11111222,11111222,11111222' 
NDBC,ioos:station:NOAA.NDBC:PTAT2:1,2019-07-01T07:00:00Z,27.8260,-97.0510,14.9,11.3,150.0,11.8,'11111222,11111222,11111222' 
NDBC,ioos:station:NOAA.NDBC:PTAT2:1,2019-07-01T08:00:00Z,27.8260,-97.0510,14.9,10.3,150.0,11.3,'11111222,11111222,11111222' 
NDBC,ioos:station:NOAA.NDBC:PTAT2:1,2019-07-01T09:00:00Z,27.8260,-97.0510,14.9,9.3,150.0,10.8,'11111222,11111222,11111222' 
NDBC,ioos:station:NOAA.NDBC:PTAT2:1,2019-07-01T10:00:00Z,27.8260,-97.0510,14.9,8.8,160.0,9.3,'11111222,11111222,11111222' 
NDBC,ioos:station:NOAA.NDBC:PTAT2:1,2019-07-01T11:00:00Z,27.8260,-97.0510,14.9,8.2,160.0,9.3,'11111222,11111222,11111222' 
NDBC,ioos:station:NOAA.NDBC:PTAT2:1,2019-07-01T13:00:00Z,27.8260,-97.0510,14.9,6.2,150.0,6.7,'11111222,11111222,11111222' 
NDBC,ioos:station:NOAA.NDBC:PTAT2:1,2019-07-01T14:00:00Z,27.8260,-97.0510,14.9,6.2,160.0,7.2,'11111222,11111222,11111222' 
NDBC,ioos:station:NOAA.NDBC:PTAT2:1,2019-07-01T16:00:00Z,27.8260,-97.0510,14.9,5.7,160.0,6.2,'11111222,11111222,11111222' 
NDBC,ioos:station:NOAA.NDBC:PTAT2:1,2019-07-01T17:00:00Z,27.8260,-97.0510,14.9,5.1,140.0,5.7,'11111222,11111222,11111222' 
NDBC,ioos:station:NOAA.NDBC:PTAT2:1,2019-07-01T18:00:00Z,27.8260,-97.0510,14.9,4.6,120.0,5.1,'11111222,11111222,11111222' 
NDBC,ioos:station:NOAA.NDBC:PTAT2:1,2019-07-01T19:00:00Z,27.8260,-97.0510,14.9,4.6,120.0,4.6,'11111222,11111222,11111222' 
NDBC,ioos:station:NOAA.NDBC:PTAT2:1,2019-07-01T20:00:00Z,27.8260,-97.0510,14.9,5.1,130.0,5.7,'11111222,11111222,11111222' 
NDBC,ioos:station:NOAA.NDBC:PTAT2:1,2019-07-01T21:00:00Z,27.8260,-97.0510,14.9,6.2,120.0,7.2,'11111222,11111222,11111222' 
NDBC,ioos:station:NOAA.NDBC:PTAT2:1,2019-07-01T22:00:00Z,27.8260,-97.0510,14.9,7.2,120.0,8.8,'11111222,11111222,11111222' 
NDBC,ioos:station:NOAA.NDBC:PTAT2:1,2019-07-01T23:00:00Z,27.8260,-97.0510,14.9,6.7,130.0,7.7,'11111222,11111222,11111222' 
NDBC,ioos:station:NOAA.NDBC:PTAT2:1,2019-07-02T00:00:00Z,27.8260,-97.0510,14.9,7.2,130.0,8.2,'11111222,11111222,11111222' 
NDBC,ioos:station:NOAA.NDBC:PTAT2:1,2019-07-02T02:00:00Z,27.8260,-97.0510,14.9,7.7,120.0,8.2,'11111222,11111222,11111222' 
NDBC,ioos:station:NOAA.NDBC:PTAT2:1,2019-07-02T03:00:00Z,27.8260,-97.0510,14.9,7.2,130.0,8.8,'11111222,11111222,11111222' 
NDBC,ioos:station:NOAA.NDBC:PTAT2:1,2019-07-02T04:00:00Z,27.8260,-97.0510,14.9,7.7,130.0,9.3,'11111222,11111222,11111222' 
NDBC,ioos:station:NOAA.NDBC:PTAT2:1,2019-07-02T05:00:00Z,27.8260,-97.0510,14.9,7.7,130.0,8.8,'11111222,11111222,11111222' 
NDBC,ioos:station:NOAA.NDBC:PTAT2:1,2019-07-02T06:00:00Z,27.8260,-97.0510,14.9,9.3,150.0,10.3,'11111222,11111222,11111222' 
NDBC,ioos:station:NOAA.NDBC:PTAT2:1,2019-07-02T07:00:00Z,27.8260,-97.0510,14.9,8.8,130.0,9.8,'11111222,11111222,11111222' 
NDBC,ioos:station:NOAA.NDBC:PTAT2:1,2019-07-02T08:00:00Z,27.8260,-97.0510,14.9,8.2,150.0,8.8,'11111222,11111222,11111222' 
NDBC,ioos:station:NOAA.NDBC:PTAT2:1,2019-07-02T09:00:00Z,27.8260,-97.0510,14.9,7.7,160.0,8.2,'11111222,11111222,11111222' 
NDBC,ioos:station:NOAA.NDBC:PTAT2:1,2019-07-02T10:00:00Z,27.8260,-97.0510,14.9,8.2,160.0,8.8,'11111222,11111222,11111222' 
NDBC,ioos:station:NOAA.NDBC:PTAT2:1,2019-07-02T11:00:00Z,27.8260,-97.0510,14.9,8.2,160.0,9.3,'11111222,11111222,11111222' 
NDBC,ioos:station:NOAA.NDBC:PTAT2:1,2019-07-02T12:00:00Z,27.8260,-97.0510,14.9,8.2,150.0,8.8,'11111222,11111222,11111222' 
NDBC,ioos:station:NOAA.NDBC:PTAT2:1,2019-07-02T13:00:00Z,27.8260,-97.0510,14.9,5.7,170.0,6.2,'11111222,11111222,11111222' 
NDBC,ioos:station:NOAA.NDBC:PTAT2:1,2019-07-02T14:00:00Z,27.8260,-97.0510,14.9,6.7,150.0,7.2,'11111222,11111222,11111222' 
NDBC,ioos:station:NOAA.NDBC:PTAT2:1,2019-07-02T15:00:00Z,27.8260,-97.0510,14.9,6.7,150.0,7.2,'11111222,11111222,11111222' 
NDBC,ioos:station:NOAA.NDBC:PTAT2:1,2019-07-02T16:00:00Z,27.8260,-97.0510,14.9,6.7,160.0,7.2,'11111222,11111222,11111222' 
NDBC,ioos:station:NOAA.NDBC:PTAT2:1,2019-07-02T17:00:00Z,27.8260,-97.0510,14.9,5.7,160.0,6.2,'11111222,11111222,11111222' 
NDBC,ioos:station:NOAA.NDBC:PTAT2:1,2019-07-02T18:00:00Z,27.8260,-97.0510,14.9,6.7,150.0,6.7,'11111222,11111222,11111222' 
NDBC,ioos:station:NOAA.NDBC:PTAT2:1,2019-07-02T19:00:00Z,27.8260,-97.0510,14.9,6.2,140.0,6.7,'11111222,11111222,11111222' 
NDBC,ioos:station:NOAA.NDBC:PTAT2:1,2019-07-02T20:00:00Z,27.8260,-97.0510,14.9,7.2,130.0,7.7,'11111222,11111222,11111222' 
NDBC,ioos:station:NOAA.NDBC:PTAT2:1,2019-07-02T21:00:00Z,27.8260,-97.0510,14.9,9.8,130.0,10.8,'11111222,11111222,11111222' 
NDBC,ioos:station:NOAA.NDBC:PTAT2:1,2019-07-02T22:00:00Z,27.8260,-97.0510,14.9,8.8,120.0,10.3,'11111222,11111222,11111222' 
NDBC,ioos:station:NOAA.NDBC:PTAT2:1,2019-07-02T23:00:00Z,27.8260,-97.0510,14.9,8.2,130.0,9.3,'11111222,11111222,11111222' 
NDBC,ioos:station:NOAA.NDBC:PTAT2:1,2019-07-03T00:00:00Z,27.8260,-97.0510,14.9,8.2,120.0,9.8,'11111222,11111222,11111222' 
NDBC,ioos:station:NOAA.NDBC:PTAT2:1,2019-07-03T01:00:00Z,27.8260,-97.0510,14.9,10.8,120.0,12.4,'11111222,11111222,11111222' 
NDBC,ioos:station:NOAA.NDBC:PTAT2:1,2019-07-03T02:00:00Z,27.8260,-97.0510,14.9,9.3,120.0,9.8,'11111222,11111222,11111222' 
NDBC,ioos:station:NOAA.NDBC:PTAT2:1,2019-07-03T03:00:00Z,27.8260,-97.0510,14.9,9.8,120.0,10.8,'11111222,11111222,11111222' 
NDBC,ioos:station:NOAA.NDBC:PTAT2:1,2019-07-03T04:00:00Z,27.8260,-97.0510,14.9,12.4,140.0,13.9,'11111222,11111222,11111222' 
NDBC,ioos:station:NOAA.NDBC:PTAT2:1,2019-07-03T05:00:00Z,27.8260,-97.0510,14.9,12.9,140.0,13.9,'11111222,11111222,11111222' 
NDBC,ioos:station:NOAA.NDBC:PTAT2:1,2019-07-03T06:00:00Z,27.8260,-97.0510,14.9,10.3,140.0,11.8,'11111222,11111222,11111222' 
NDBC,ioos:station:NOAA.NDBC:PTAT2:1,2019-07-03T07:00:00Z,27.8260,-97.0510,14.9,10.8,140.0,11.8,'11111222,11111222,11111222' 
NDBC,ioos:station:NOAA.NDBC:PTAT2:1,2019-07-03T08:00:00Z,27.8260,-97.0510,14.9,9.3,150.0,10.3,'11111222,11111222,11111222' 
NDBC,ioos:station:NOAA.NDBC:PTAT2:1,2019-07-03T09:00:00Z,27.8260,-97.0510,14.9,10.8,170.0,11.8,'11111222,11111222,11111222' 
NDBC,ioos:station:NOAA.NDBC:PTAT2:1,2019-07-03T10:00:00Z,27.8260,-97.0510,14.9,10.8,160.0,11.8,'11111222,11111222,11111222' 
NDBC,ioos:station:NOAA.NDBC:PTAT2:1,2019-07-03T11:00:00Z,27.8260,-97.0510,14.9,10.3,160.0,10.8,'11111222,11111222,11111222' 
NDBC,ioos:station:NOAA.NDBC:PTAT2:1,2019-07-03T12:00:00Z,27.8260,-97.0510,14.9,10.3,150.0,12.4,'11111222,11111222,11111222' 
NDBC,ioos:station:NOAA.NDBC:PTAT2:1,2019-07-03T13:00:00Z,27.8260,-97.0510,14.9,9.8,150.0,10.3,'11111222,11111222,11111222' 
NDBC,ioos:station:NOAA.NDBC:PTAT2:1,2019-07-03T14:00:00Z,27.8260,-97.0510,14.9,9.3,150.0,10.3,'11111222,11111222,11111222' 
NDBC,ioos:station:NOAA.NDBC:PTAT2:1,2019-07-03T16:00:00Z,27.8260,-97.0510,14.9,8.8,150.0,9.8,'11111222,11111222,11111222' 
NDBC,ioos:station:NOAA.NDBC:PTAT2:1,2019-07-03T17:00:00Z,27.8260,-97.0510,14.9,8.2,150.0,9.3,'11111222,11111222,11111222' 
NDBC,ioos:station:NOAA.NDBC:PTAT2:1,2019-07-03T18:00:00Z,27.8260,-97.0510,14.9,10.8,150.0,11.8,'11111222,11111222,11111222' 
NDBC,ioos:station:NOAA.NDBC:PTAT2:1,2019-07-03T19:00:00Z,27.8260,-97.0510,14.9,10.8,150.0,11.8,'11111222,11111222,11111222' 
NDBC,ioos:station:NOAA.NDBC:PTAT2:1,2019-07-03T20:00:00Z,27.8260,-97.0510,14.9,10.3,150.0,11.8,'11111222,11111222,11111222' 
NDBC,ioos:station:NOAA.NDBC:PTAT2:1,2019-07-03T21:00:00Z,27.8260,-97.0510,14.9,11.3,150.0,12.9,'11111222,11111222,11111222' 
NDBC,ioos:station:NOAA.NDBC:PTAT2:1,2019-07-03T22:00:00Z,27.8260,-97.0510,14.9,10.8,140.0,12.9,'11111222,11111222,11111222' 
NDBC,ioos:station:NOAA.NDBC:PTAT2:1,2019-07-03T23:00:00Z,27.8260,-97.0510,14.9,10.3,140.0,11.3,'11111222,11111222,11111222' 
NDBC,ioos:station:NOAA.NDBC:PTAT2:1,2019-07-04T00:00:00Z,27.8260,-97.0510,14.9,9.3,130.0,10.3,'11111222,11111222,11111222' 
NDBC,ioos:station:NOAA.NDBC:PTAT2:1,2019-07-04T01:00:00Z,27.8260,-97.0510,14.9,9.8,140.0,10.8,'11111222,11111222,11111222' 
NDBC,ioos:station:NOAA.NDBC:PTAT2:1,2019-07-04T02:00:00Z,27.8260,-97.0510,14.9,9.3,130.0,10.8,'11111222,11111222,11111222' 
NDBC,ioos:station:NOAA.NDBC:PTAT2:1,2019-07-04T03:00:00Z,27.8260,-97.0510,14.9,9.3,140.0,10.3,'11111222,11111222,11111222' 
NDBC,ioos:station:NOAA.NDBC:PTAT2:1,2019-07-04T04:00:00Z,27.8260,-97.0510,14.9,6.7,150.0,7.2,'11111222,11111222,11111222' 
NDBC,ioos:station:NOAA.NDBC:PTAT2:1,2019-07-04T05:00:00Z,27.8260,-97.0510,14.9,6.2,160.0,6.7,'11111222,11111222,11111222' 
NDBC,ioos:station:NOAA.NDBC:PTAT2:1,2019-07-04T06:00:00Z,27.8260,-97.0510,14.9,9.3,150.0,10.3,'11111222,11111222,11111222' 
NDBC,ioos:station:NOAA.NDBC:PTAT2:1,2019-07-04T07:00:00Z,27.8260,-97.0510,14.9,10.3,140.0,11.3,'11111222,11111222,11111222' 
NDBC,ioos:station:NOAA.NDBC:PTAT2:1,2019-07-04T08:00:00Z,27.8260,-97.0510,14.9,12.4,150.0,13.9,'11111222,11111222,11111222' 
NDBC,ioos:station:NOAA.NDBC:PTAT2:1,2019-07-04T09:00:00Z,27.8260,-97.0510,14.9,11.3,150.0,12.4,'11111222,11111222,11111222' 
NDBC,ioos:station:NOAA.NDBC:PTAT2:1,2019-07-04T10:00:00Z,27.8260,-97.0510,14.9,11.3,160.0,12.4,'11111222,11111222,11111222' 
NDBC,ioos:station:NOAA.NDBC:PTAT2:1,2019-07-04T11:00:00Z,27.8260,-97.0510,14.9,11.8,150.0,13.4,'11111222,11111222,11111222' 
NDBC,ioos:station:NOAA.NDBC:PTAT2:1,2019-07-04T12:00:00Z,27.8260,-97.0510,14.9,10.8,150.0,11.8,'11111222,11111222,11111222' 
NDBC,ioos:station:NOAA.NDBC:PTAT2:1,2019-07-04T14:00:00Z,27.8260,-97.0510,14.9,10.3,150.0,11.3,'11111222,11111222,11111222' 
NDBC,ioos:station:NOAA.NDBC:PTAT2:1,2019-07-04T15:00:00Z,27.8260,-97.0510,14.9,9.3,160.0,10.3,'11111222,11111222,11111222' 
NDBC,ioos:station:NOAA.NDBC:PTAT2:1,2019-07-04T16:00:00Z,27.8260,-97.0510,14.9,10.3,160.0,11.3,'11111222,11111222,11111222' 
NDBC,ioos:station:NOAA.NDBC:PTAT2:1,2019-07-04T17:00:00Z,27.8260,-97.0510,14.9,10.8,150.0,11.8,'11111222,11111222,11111222' 
NDBC,ioos:station:NOAA.NDBC:PTAT2:1,2019-07-04T18:00:00Z,27.8260,-97.0510,14.9,9.8,150.0,10.8,'11111222,11111222,11111222' 
NDBC,ioos:station:NOAA.NDBC:PTAT2:1,2019-07-04T19:00:00Z,27.8260,-97.0510,14.9,8.8,140.0,9.8,'11111222,11111222,11111222' 
NDBC,ioos:station:NOAA.NDBC:PTAT2:1,2019-07-04T20:00:00Z,27.8260,-97.0510,14.9,10.8,150.0,11.8,'11111222,11111222,11111222' 
NDBC,ioos:station:NOAA.NDBC:PTAT2:1,2019-07-04T21:00:00Z,27.8260,-97.0510,14.9,9.8,140.0,11.3,'11111222,11111222,11111222' 
NDBC,ioos:station:NOAA.NDBC:PTAT2:1,2019-07-04T22:00:00Z,27.8260,-97.0510,14.9,11.8,130.0,13.4,'11111222,11111222,11111222' 
NDBC,ioos:station:NOAA.NDBC:PTAT2:1,2019-07-04T23:00:00Z,27.8260,-97.0510,14.9,11.8,130.0,13.4,'11111222,11111222,11111222' 
NDBC,ioos:station:NOAA.NDBC:PTAT2:1,2019-07-05T00:00:00Z,27.8260,-97.0510,14.9,11.8,130.0,12.9,'11111222,11111222,11111222' 
NDBC,ioos:station:NOAA.NDBC:PTAT2:1,2019-07-05T01:00:00Z,27.8260,-97.0510,14.9,12.4,140.0,13.9,'11111222,11111222,11111222' 
NDBC,ioos:station:NOAA.NDBC:PTAT2:1,2019-07-05T02:00:00Z,27.8260,-97.0510,14.9,11.3,140.0,12.9,'11111222,11111222,11111222' 
NDBC,ioos:station:NOAA.NDBC:PTAT2:1,2019-07-05T03:00:00Z,27.8260,-97.0510,14.9,11.8,140.0,13.4,'11111222,11111222,11111222' 
NDBC,ioos:station:NOAA.NDBC:PTAT2:1,2019-07-05T04:00:00Z,27.8260,-97.0510,14.9,11.8,140.0,12.9,'11111222,11111222,11111222' 
NDBC,ioos:station:NOAA.NDBC:PTAT2:1,2019-07-05T05:00:00Z,27.8260,-97.0510,14.9,10.8,150.0,12.4,'11111222,11111222,11111222' 
NDBC,ioos:station:NOAA.NDBC:PTAT2:1,2019-07-05T06:00:00Z,27.8260,-97.0510,14.9,11.8,150.0,12.9,'11111222,11111222,11111222' 
NDBC,ioos:station:NOAA.NDBC:PTAT2:1,2019-07-05T07:00:00Z,27.8260,-97.0510,14.9,11.3,160.0,12.4,'11111222,11111222,11111222' 
NDBC,ioos:station:NOAA.NDBC:PTAT2:1,2019-07-05T08:00:00Z,27.8260,-97.0510,14.9,10.8,150.0,12.4,'11111222,11111222,11111222' 
NDBC,ioos:station:NOAA.NDBC:PTAT2:1,2019-07-05T09:00:00Z,27.8260,-97.0510,14.9,12.4,150.0,13.4,'11111222,11111222,11111222' 
NDBC,ioos:station:NOAA.NDBC:PTAT2:1,2019-07-05T10:00:00Z,27.8260,-97.0510,14.9,9.3,150.0,10.8,'11111222,11111222,11111222' 
NDBC,ioos:station:NOAA.NDBC:PTAT2:1,2019-07-05T11:00:00Z,27.8260,-97.0510,14.9,9.8,150.0,11.8,'11111222,11111222,11111222' 
NDBC,ioos:station:NOAA.NDBC:PTAT2:1,2019-07-05T12:00:00Z,27.8260,-97.0510,14.9,8.8,150.0,9.8,'11111222,11111222,11111222' 
NDBC,ioos:station:NOAA.NDBC:PTAT2:1,2019-07-05T14:00:00Z,27.8260,-97.0510,14.9,7.2,150.0,7.7,'11111222,11111222,11111222' 
NDBC,ioos:station:NOAA.NDBC:PTAT2:1,2019-07-05T15:00:00Z,27.8260,-97.0510,14.9,8.2,150.0,9.3,'11111222,11111222,11111222' 
NDBC,ioos:station:NOAA.NDBC:PTAT2:1,2019-07-05T16:00:00Z,27.8260,-97.0510,14.9,8.8,150.0,9.3,'11111222,11111222,11111222' 
NDBC,ioos:station:NOAA.NDBC:PTAT2:1,2019-07-05T17:00:00Z,27.8260,-97.0510,14.9,8.8,140.0,9.3,'11111222,11111222,11111222' 
NDBC,ioos:station:NOAA.NDBC:PTAT2:1,2019-07-05T18:00:00Z,27.8260,-97.0510,14.9,7.2,150.0,8.2,'11111222,11111222,11111222' 
NDBC,ioos:station:NOAA.NDBC:PTAT2:1,2019-07-05T20:00:00Z,27.8260,-97.0510,14.9,7.7,140.0,8.2,'11111222,11111222,11111222' 
NDBC,ioos:station:NOAA.NDBC:PTAT2:1,2019-07-05T21:00:00Z,27.8260,-97.0510,14.9,7.2,140.0,7.7,'11111222,11111222,11111222' 
NDBC,ioos:station:NOAA.NDBC:PTAT2:1,2019-07-05T22:00:00Z,27.8260,-97.0510,14.9,7.7,130.0,8.2,'11111222,11111222,11111222' 
NDBC,ioos:station:NOAA.NDBC:PTAT2:1,2019-07-05T23:00:00Z,27.8260,-97.0510,14.9,8.8,120.0,9.8,'11111222,11111222,11111222' 
NDBC,ioos:station:NOAA.NDBC:PTAT2:1,2019-07-06T00:00:00Z,27.8260,-97.0510,14.9,8.8,130.0,9.3,'11111222,11111222,11111222' 
NDBC,ioos:station:NOAA.NDBC:PTAT2:1,2019-07-06T01:00:00Z,27.8260,-97.0510,14.9,7.7,130.0,8.2,'11111222,11111222,11111222' 
NDBC,ioos:station:NOAA.NDBC:PTAT2:1,2019-07-06T02:00:00Z,27.8260,-97.0510,14.9,8.8,130.0,9.3,'11111222,11111222,11111222' 
NDBC,ioos:station:NOAA.NDBC:PTAT2:1,2019-07-06T03:00:00Z,27.8260,-97.0510,14.9,7.7,130.0,8.8,'11111222,11111222,11111222' 
NDBC,ioos:station:NOAA.NDBC:PTAT2:1,2019-07-06T04:00:00Z,27.8260,-97.0510,14.9,9.8,120.0,10.3,'11111222,11111222,11111222' 
NDBC,ioos:station:NOAA.NDBC:PTAT2:1,2019-07-06T05:00:00Z,27.8260,-97.0510,14.9,8.8,130.0,9.8,'11111222,11111222,11111222' 
NDBC,ioos:station:NOAA.NDBC:PTAT2:1,2019-07-06T06:00:00Z,27.8260,-97.0510,14.9,8.8,140.0,9.3,'11111222,11111222,11111222' 
NDBC,ioos:station:NOAA.NDBC:PTAT2:1,2019-07-06T07:00:00Z,27.8260,-97.0510,14.9,8.2,130.0,8.8,'11111222,11111222,11111222' 
NDBC,ioos:station:NOAA.NDBC:PTAT2:1,2019-07-06T08:00:00Z,27.8260,-97.0510,14.9,8.8,130.0,9.3,'11111222,11111222,11111222' 
NDBC,ioos:station:NOAA.NDBC:PTAT2:1,2019-07-06T09:00:00Z,27.8260,-97.0510,14.9,7.2,150.0,7.7,'11111222,11111222,11111222' 
NDBC,ioos:station:NOAA.NDBC:PTAT2:1,2019-07-06T10:00:00Z,27.8260,-97.0510,14.9,7.2,150.0,7.7,'11111222,11111222,11111222' 
NDBC,ioos:station:NOAA.NDBC:PTAT2:1,2019-07-06T11:00:00Z,27.8260,-97.0510,14.9,7.7,150.0,8.2,'11111222,11111222,11111222' 
NDBC,ioos:station:NOAA.NDBC:PTAT2:1,2019-07-06T12:00:00Z,27.8260,-97.0510,14.9,5.1,160.0,5.1,'11111222,11111222,11111222' 
NDBC,ioos:station:NOAA.NDBC:PTAT2:1,2019-07-06T13:00:00Z,27.8260,-97.0510,14.9,3.6,150.0,4.1,'11111222,11111222,11111222' 
NDBC,ioos:station:NOAA.NDBC:PTAT2:1,2019-07-06T14:00:00Z,27.8260,-97.0510,14.9,3.1,160.0,3.6,'11111222,11111222,11111222' 
NDBC,ioos:station:NOAA.NDBC:PTAT2:1,2019-07-06T16:00:00Z,27.8260,-97.0510,14.9,3.1,120.0,3.6,'11111222,11111222,11111222' 
NDBC,ioos:station:NOAA.NDBC:PTAT2:1,2019-07-06T17:00:00Z,27.8260,-97.0510,14.9,3.6,120.0,4.1,'11111222,11111222,11111222' 
NDBC,ioos:station:NOAA.NDBC:PTAT2:1,2019-07-06T18:00:00Z,27.8260,-97.0510,14.9,4.1,100.0,4.6,'11111222,11111222,11111222' 
NDBC,ioos:station:NOAA.NDBC:PTAT2:1,2019-07-06T19:00:00Z,27.8260,-97.0510,14.9,5.1,110.0,5.7,'11111222,11111222,11111222' 
NDBC,ioos:station:NOAA.NDBC:PTAT2:1,2019-07-06T20:00:00Z,27.8260,-97.0510,14.9,4.6,120.0,5.1,'11111222,11111222,11111222' 
NDBC,ioos:station:NOAA.NDBC:PTAT2:1,2019-07-06T21:00:00Z,27.8260,-97.0510,14.9,6.2,100.0,6.2,'11111222,11111222,11111222' 
NDBC,ioos:station:NOAA.NDBC:PTAT2:1,2019-07-06T22:00:00Z,27.8260,-97.0510,14.9,7.2,120.0,7.2,'11111222,11111222,11111222' 
NDBC,ioos:station:NOAA.NDBC:PTAT2:1,2019-07-06T23:00:00Z,27.8260,-97.0510,14.9,6.2,110.0,7.2,'11111222,11111222,11111222' 
NDBC,ioos:station:NOAA.NDBC:PTAT2:1,2019-07-07T00:00:00Z,27.8260,-97.0510,14.9,6.7,120.0,7.2,'11111222,11111222,11111222' 
NDBC,ioos:station:NOAA.NDBC:PTAT2:1,2019-07-07T01:00:00Z,27.8260,-97.0510,14.9,6.7,110.0,7.2,'11111222,11111222,11111222' 
NDBC,ioos:station:NOAA.NDBC:PTAT2:1,2019-07-07T02:00:00Z,27.8260,-97.0510,14.9,6.7,100.0,7.2,'11111222,11111222,11111222' 
NDBC,ioos:station:NOAA.NDBC:PTAT2:1,2019-07-07T03:00:00Z,27.8260,-97.0510,14.9,6.7,110.0,7.2,'11111222,11111222,11111222' 
NDBC,ioos:station:NOAA.NDBC:PTAT2:1,2019-07-07T04:00:00Z,27.8260,-97.0510,14.9,6.2,120.0,6.7,'11111222,11111222,11111222' 
NDBC,ioos:station:NOAA.NDBC:PTAT2:1,2019-07-07T05:00:00Z,27.8260,-97.0510,14.9,6.2,120.0,7.7,'11111222,11111222,11111222' 
NDBC,ioos:station:NOAA.NDBC:PTAT2:1,2019-07-07T06:00:00Z,27.8260,-97.0510,14.9,7.2,110.0,8.2,'11111222,11111222,11111222' 
NDBC,ioos:station:NOAA.NDBC:PTAT2:1,2019-07-07T07:00:00Z,27.8260,-97.0510,14.9,8.2,130.0,8.8,'11111222,11111222,11111222' 
NDBC,ioos:station:NOAA.NDBC:PTAT2:1,2019-07-07T08:00:00Z,27.8260,-97.0510,14.9,7.7,120.0,8.8,'11111222,11111222,11111222' 
NDBC,ioos:station:NOAA.NDBC:PTAT2:1,2019-07-07T09:00:00Z,27.8260,-97.0510,14.9,8.2,130.0,9.3,'11111222,11111222,11111222' 
NDBC,ioos:station:NOAA.NDBC:PTAT2:1,2019-07-07T10:00:00Z,27.8260,-97.0510,14.9,6.2,140.0,7.2,'11111222,11111222,11111222' 
NDBC,ioos:station:NOAA.NDBC:PTAT2:1,2019-07-07T11:00:00Z,27.8260,-97.0510,14.9,5.7,130.0,6.2,'11111222,11111222,11111222' 
NDBC,ioos:station:NOAA.NDBC:PTAT2:1,2019-07-07T12:00:00Z,27.8260,-97.0510,14.9,4.6,140.0,4.6,'11111222,11111222,11111222' 
NDBC,ioos:station:NOAA.NDBC:PTAT2:1,2019-07-07T14:00:00Z,27.8260,-97.0510,14.9,3.6,150.0,4.1,'11111222,11111222,11111222' 
NDBC,ioos:station:NOAA.NDBC:PTAT2:1,2019-07-07T15:00:00Z,27.8260,-97.0510,14.9,5.1,140.0,5.1,'11111222,11111222,11111222' 
NDBC,ioos:station:NOAA.NDBC:PTAT2:1,2019-07-07T17:00:00Z,27.8260,-97.0510,14.9,3.6,150.0,3.6,'11111222,11111222,11111222' 
NDBC,ioos:station:NOAA.NDBC:PTAT2:1,2019-07-07T18:00:00Z,27.8260,-97.0510,14.9,3.6,140.0,4.1,'11111222,11111222,11111222' 
NDBC,ioos:station:NOAA.NDBC:PTAT2:1,2019-07-07T19:00:00Z,27.8260,-97.0510,14.9,4.6,140.0,5.7,'11111222,11111222,11111222' 
NDBC,ioos:station:NOAA.NDBC:PTAT2:1,2019-07-07T20:00:00Z,27.8260,-97.0510,14.9,5.1,130.0,5.7,'11111222,11111222,11111222' 
NDBC,ioos:station:NOAA.NDBC:PTAT2:1,2019-07-07T21:00:00Z,27.8260,-97.0510,14.9,6.2,140.0,6.7,'11111222,11111222,11111222' 
NDBC,ioos:station:NOAA.NDBC:PTAT2:1,2019-07-07T22:00:00Z,27.8260,-97.0510,14.9,6.2,130.0,6.7,'11111222,11111222,11111222' 
NDBC,ioos:station:NOAA.NDBC:PTAT2:1,2019-07-07T23:00:00Z,27.8260,-97.0510,14.9,7.7,130.0,8.8,'11111222,11111222,11111222' 
NDBC,ioos:station:NOAA.NDBC:PTAT2:1,2019-07-08T00:00:00Z,27.8260,-97.0510,14.9,8.2,130.0,8.8,'11111222,11111222,11111222' 
NDBC,ioos:station:NOAA.NDBC:PTAT2:1,2019-07-08T02:00:00Z,27.8260,-97.0510,14.9,7.7,130.0,8.2,'11111222,11111222,11111222' 
NDBC,ioos:station:NOAA.NDBC:PTAT2:1,2019-07-08T03:00:00Z,27.8260,-97.0510,14.9,7.2,130.0,7.7,'11111222,11111222,11111222' 
NDBC,ioos:station:NOAA.NDBC:PTAT2:1,2019-07-08T04:00:00Z,27.8260,-97.0510,14.9,7.7,140.0,8.8,'11111222,11111222,11111222' 
NDBC,ioos:station:NOAA.NDBC:PTAT2:1,2019-07-08T05:00:00Z,27.8260,-97.0510,14.9,8.2,140.0,8.8,'11111222,11111222,11111222' 
NDBC,ioos:station:NOAA.NDBC:PTAT2:1,2019-07-08T06:00:00Z,27.8260,-97.0510,14.9,8.2,150.0,9.3,'11111222,11111222,11111222' 
NDBC,ioos:station:NOAA.NDBC:PTAT2:1,2019-07-08T07:00:00Z,27.8260,-97.0510,14.9,8.8,150.0,9.3,'11111222,11111222,11111222' 
NDBC,ioos:station:NOAA.NDBC:PTAT2:1,2019-07-08T08:00:00Z,27.8260,-97.0510,14.9,8.8,160.0,9.8,'11111222,11111222,11111222' 
NDBC,ioos:station:NOAA.NDBC:PTAT2:1,2019-07-08T09:00:00Z,27.8260,-97.0510,14.9,10.3,170.0,11.3,'11111222,11111222,11111222' 
NDBC,ioos:station:NOAA.NDBC:PTAT2:1,2019-07-08T10:00:00Z,27.8260,-97.0510,14.9,8.2,170.0,9.8,'11111222,11111222,11111222' 
NDBC,ioos:station:NOAA.NDBC:PTAT2:1,2019-07-08T11:00:00Z,27.8260,-97.0510,14.9,9.3,170.0,9.8,'11111222,11111222,11111222' 
NDBC,ioos:station:NOAA.NDBC:PTAT2:1,2019-07-08T12:00:00Z,27.8260,-97.0510,14.9,9.3,180.0,10.3,'11111222,11111222,11111222' 
NDBC,ioos:station:NOAA.NDBC:PTAT2:1,2019-07-08T14:00:00Z,27.8260,-97.0510,14.9,7.2,180.0,7.7,'11111222,11111222,11111222' 
NDBC,ioos:station:NOAA.NDBC:PTAT2:1,2019-07-08T15:00:00Z,27.8260,-97.0510,14.9,6.7,180.0,7.2,'11111222,11111222,11111222' 
NDBC,ioos:station:NOAA.NDBC:PTAT2:1,2019-07-08T16:00:00Z,27.8260,-97.0510,14.9,6.7,160.0,7.7,'11111222,11111222,11111222' 
NDBC,ioos:station:NOAA.NDBC:PTAT2:1,2019-07-08T17:00:00Z,27.8260,-97.0510,14.9,8.2,150.0,8.8,'11111222,11111222,11111222' 
NDBC,ioos:station:NOAA.NDBC:PTAT2:1,2019-07-08T18:00:00Z,27.8260,-97.0510,14.9,7.7,150.0,8.8,'11111222,11111222,11111222' 
NDBC,ioos:station:NOAA.NDBC:PTAT2:1,2019-07-08T19:00:00Z,27.8260,-97.0510,14.9,7.2,140.0,7.7,'11111222,11111222,11111222' 
NDBC,ioos:station:NOAA.NDBC:PTAT2:1,2019-07-08T20:00:00Z,27.8260,-97.0510,14.9,7.7,140.0,8.8,'11111222,11111222,11111222' 
NDBC,ioos:station:NOAA.NDBC:PTAT2:1,2019-07-08T21:00:00Z,27.8260,-97.0510,14.9,8.2,140.0,8.8,'11111222,11111222,11111222' 
NDBC,ioos:station:NOAA.NDBC:PTAT2:1,2019-07-08T22:00:00Z,27.8260,-97.0510,14.9,8.8,140.0,9.3,'11111222,11111222,11111222' 
NDBC,ioos:station:NOAA.NDBC:PTAT2:1,2019-07-08T23:00:00Z,27.8260,-97.0510,14.9,9.8,140.0,10.8,'11111222,11111222,11111222' 
NDBC,ioos:station:NOAA.NDBC:PTAT2:1,2019-07-09T00:00:00Z,27.8260,-97.0510,14.9,9.3,140.0,9.8,'11111222,11111222,11111222' 
NDBC,ioos:station:NOAA.NDBC:PTAT2:1,2019-07-09T01:00:00Z,27.8260,-97.0510,14.9,9.8,140.0,10.8,'11111222,11111222,11111222' 
NDBC,ioos:station:NOAA.NDBC:PTAT2:1,2019-07-09T03:00:00Z,27.8260,-97.0510,14.9,9.3,150.0,10.3,'11111222,11111222,11111222' 
NDBC,ioos:station:NOAA.NDBC:PTAT2:1,2019-07-09T04:00:00Z,27.8260,-97.0510,14.9,9.8,150.0,10.8,'11111222,11111222,11111222' 
NDBC,ioos:station:NOAA.NDBC:PTAT2:1,2019-07-09T05:00:00Z,27.8260,-97.0510,14.9,9.8,160.0,10.8,'11111222,11111222,11111222' 
NDBC,ioos:station:NOAA.NDBC:PTAT2:1,2019-07-09T07:00:00Z,27.8260,-97.0510,14.9,11.3,170.0,11.8,'11111222,11111222,11111222' 
NDBC,ioos:station:NOAA.NDBC:PTAT2:1,2019-07-09T08:00:00Z,27.8260,-97.0510,14.9,9.3,170.0,10.8,'11111222,11111222,11111222' 
NDBC,ioos:station:NOAA.NDBC:PTAT2:1,2019-07-09T09:00:00Z,27.8260,-97.0510,14.9,9.8,170.0,10.3,'11111222,11111222,11111222' 
NDBC,ioos:station:NOAA.NDBC:PTAT2:1,2019-07-09T10:00:00Z,27.8260,-97.0510,14.9,10.3,170.0,11.3,'11111222,11111222,11111222' 
NDBC,ioos:station:NOAA.NDBC:PTAT2:1,2019-07-09T11:00:00Z,27.8260,-97.0510,14.9,10.8,180.0,11.8,'11111222,11111222,11111222' 
NDBC,ioos:station:NOAA.NDBC:PTAT2:1,2019-07-09T12:00:00Z,27.8260,-97.0510,14.9,11.3,180.0,11.8,'11111222,11111222,11111222' 
NDBC,ioos:station:NOAA.NDBC:PTAT2:1,2019-07-09T13:00:00Z,27.8260,-97.0510,14.9,9.3,180.0,10.3,'11111222,11111222,11111222' 
NDBC,ioos:station:NOAA.NDBC:PTAT2:1,2019-07-09T15:00:00Z,27.8260,-97.0510,14.9,9.3,180.0,9.8,'11111222,11111222,11111222' 
NDBC,ioos:station:NOAA.NDBC:PTAT2:1,2019-07-09T16:00:00Z,27.8260,-97.0510,14.9,8.2,170.0,8.8,'11111222,11111222,11111222' 